x

9415144 - Port Chicago, Ca (pcoc1) Weather Station

3:54am - Wed 27th Jul 2016 All times are PDT. -7 hours from GMT.

  • Wind
    20mph, 22mph gusts
  • Sea Temp 71°f
  • Air Temp 66°f
  • Sea Pressure 1010.3mb
  • 9415144 - Port Chicago, Ca
  • 9415144 - Port Chicago, Ca

More Historic Weather Station data

Upgrade to MSW Pro to gain access to the past 30 days of data for over 8000 Wavebouys and Weather Stations around the globe.

Join Pro

Comparision Forecast

View Surf forecast
   
Wed 07/27 3:54am 20 22 mph 1010.3mb 71f 66f
3:48am 18 21 mph 1010.4mb 71f 66f
3:42am 17 20 mph 1010.4mb 71f 66f
3:36am 17 21 mph 1010.3mb 71f 66f
3:30am 18 20 mph 1010.3mb 71f 66f
3:24am 17 21 mph 1010.3mb 71f 66f
3:18am 18 21 mph 1010.3mb 71f 67f
3:12am 15 20 mph 1010.2mb 71f 67f
3:06am 15 17 mph 1010.2mb 71f 67f
3:00am 11 14 mph 1010.1mb 71f 67f
2:54am 10 13 mph 1010.1mb 71f 66f
2:48am 11 14 mph 1010mb 71f 65f
2:42am 10 13 mph 1009.9mb 71f 65f
2:36am 11 13 mph 1010mb 71f 65f
2:30am 10 13 mph 1009.9mb 71f 65f
2:24am 10 11 mph 1010mb 71f 65f
2:18am 9 13 mph 1010mb 71f 65f
2:12am 10 13 mph 1010.1mb 71f 65f
2:06am 10 13 mph 1010.1mb 71f 65f
2:00am 11 13 mph 1010.1mb 71f 65f
1:54am 11 14 mph 1010.1mb 71f 66f
1:48am 10 14 mph 1010.1mb 71f 66f
1:42am 11 14 mph 1010.2mb 71f 66f
1:36am 11 15 mph 1010.2mb 71f 67f
1:30am 13 14 mph 1010.1mb 71f 67f
1:24am 13 14 mph 1010.2mb 71f 68f
1:18am 11 14 mph 1010.2mb 71f 68f
1:12am 11 13 mph 1010.1mb 71f 69f
1:06am 11
mph
1010.1mb 71f 70f
1:00am 10 11 mph 1010.1mb 71f 71f
12:54am 10
mph
1010.1mb 71f 71f
12:48am 9 10 mph 1010mb 71f 70f
12:42am 8 10 mph 1010mb 71f 70f
12:36am 8 9 mph 1010mb 71f 69f
12:30am 8 10 mph 1010.1mb 71f 71f
12:24am 8 9 mph 1010mb 71f 71f
12:18am 7 9 mph 1010mb 71f 71f
12:12am 7 9 mph 1010.1mb 71f 71f
12:06am 7 8 mph 1010.2mb 71f 71f
12:00am 7 8 mph 1010.1mb 71f 72f
Tue 07/26 11:54pm 7
mph
1010.1mb 71f 72f
11:48pm 6 8 mph 1010mb 71f 73f
11:42pm 7 8 mph 1010mb 71f 74f
11:36pm 8 9 mph 1009.9mb 71f 74f
11:30pm 9
mph
1009.9mb 71f 74f
11:24pm 8 9 mph 1009.9mb 71f 74f
11:18pm 7 9 mph 1009.9mb 71f 74f
11:12pm 9 10 mph 1009.9mb 71f 76f
11:06pm 9
mph
1010mb 71f 76f
11:00pm 8 10 mph 1010mb 71f 76f
10:54pm 9 10 mph 1010.1mb 71f 77f
10:48pm 6 7 mph 1010.1mb 71f 75f
10:42pm 6 9 mph 1010.1mb 71f 76f
10:36pm 8 9 mph 1010.2mb 71f 76f
10:30pm 8 10 mph 1010.2mb 71f 76f
10:24pm 9 11 mph 1010.2mb 71f 76f
10:18pm 9 10 mph 1010.2mb 71f 77f
10:12pm 8 10 mph 1010.1mb 71f 76f
10:06pm 9 10 mph 1010.1mb 71f 77f
10:00pm 6 9 mph 1010.1mb 71f 76f
9:54pm 5 7 mph 1010mb 71f 76f
9:48pm 5 6 mph 1010mb 71f 75f
9:42pm 6 8 mph 1009.9mb 71f 75f
9:36pm 7 9 mph 1009.9mb 71f 76f
9:30pm 7 13 mph 1009.8mb 71f 76f
9:24pm 10 11 mph 1009.8mb 71f 76f
9:18pm 8 10 mph 1009.7mb 71f 76f
9:12pm 9 11 mph 1009.7mb 71f 76f
9:06pm 9 10 mph 1009.6mb 71f 76f
9:00pm 10 11 mph 1009.5mb 71f 77f
8:54pm 7 8 mph 1009.5mb 71f 77f
8:48pm 3 9 mph 1009.5mb 71f 77f
8:42pm 9 13 mph 1009.4mb 71f 78f
8:36pm 9 11 mph 1009.3mb 71f 78f
8:30pm 11 14 mph 1009.2mb 71f 77f
8:24pm 13 14 mph 1009.2mb 71f 78f
8:18pm 14
mph
1009.2mb 71f -
8:12pm 14 16 mph 1009.1mb 71f -
8:06pm 15 17 mph 1009mb 71f -
8:00pm 15 18 mph - 71f -
7:54pm 17 18 mph - 71f -
7:48pm 14 17 mph 1008.8mb 71f -
7:42pm 16 18 mph 1008.9mb 71f -
7:36pm 15 16 mph 1008.9mb 71f -
7:30pm 14 16 mph - 71f 83f
7:24pm 14 15 mph - 71f 84f
7:18pm 13 15 mph 1008.9mb 71f 83f
7:12pm 14 15 mph 1008.8mb 71f 84f
7:06pm 13 14 mph 1008.8mb 71f 83f
7:00pm  -  mph - 71f 84f
6:54pm  -  mph - 71f 84f
6:48pm 14 16 mph - - -
6:42pm 15 17 mph - - -
6:36pm 14 16 mph - - -
6:30pm 14 17 mph - 71f -
6:24pm 15 17 mph - 71f -
6:18pm 15 18 mph - 71f 87f
6:12pm 16 18 mph - 71f 87f
6:06pm 15 17 mph - 71f 88f
6:00pm  -  mph - 71f 89f
5:54pm  -  mph - 71f 89f
5:48pm 14 16 mph 1008.7mb - -
5:42pm 14 15 mph 1008.7mb - -
5:36pm 14 15 mph 1008.7mb - -
5:30pm 14 15 mph - 71f 91f
5:24pm 14 15 mph - 70f 90f
5:18pm  -  mph - 70f 90f
5:12pm  -  mph - 70f 91f
5:06pm  -  mph - 70f 92f
5:00pm  -  mph - 70f -
4:54pm  -  mph - 70f -
4:48pm  -  mph - 70f -
4:42pm  -  mph - 70f -
4:36pm  -  mph - 70f -
4:30pm 8 10 mph - 70f 94f
4:24pm 9 10 mph - 70f 94f
4:18pm 10
mph
1009.3mb 70f -
4:12pm 10
mph
1009.4mb 70f -
4:06pm 9 10 mph 1009.5mb 70f -
4:00pm  -  mph 1009.6mb 70f -
3:54pm  -  mph 1009.6mb 70f -
3:48pm  -  mph 1009.7mb 70f -
3:42pm  -  mph 1009.8mb 70f -
3:36pm  -  mph 1009.8mb 71f -
3:30pm 9
mph
1009.9mb 71f 93f
3:24pm 7 8 mph 1010mb 71f 92f
3:18pm 7 9 mph 1010mb 71f -
3:12pm 8 9 mph 1010.1mb 71f -
3:06pm 8
mph
1010.2mb 71f -
3:00pm  -  mph - 71f 92f
2:54pm  -  mph - 71f 91f
2:48pm 7 9 mph - 71f -
2:42pm 8 9 mph - 71f -
2:36pm 8 9 mph - 71f -
2:30pm 7 8 mph 1010.7mb 71f 89f
2:24pm 7 8 mph 1010.7mb 71f 89f
2:18pm 8
mph
1010.8mb 71f 88f
2:12pm 7 9 mph 1010.8mb 71f 87f
2:06pm 8
mph
1010.9mb 71f 87f
2:00pm 8
mph
1010.9mb 71f 87f
1:54pm 7 8 mph 1011mb 71f 87f
1:48pm 7 9 mph 1011.1mb 71f 87f
1:42pm 8 9 mph 1011.1mb 71f 86f
1:36pm 9 10 mph 1011.2mb 71f 85f
1:30pm 9
mph
1011.2mb 71f 85f
1:24pm 9 10 mph 1011.3mb 71f 84f
1:18pm 10
mph
1011.4mb 71f 84f
1:12pm 9
mph
1011.5mb 71f 85f
1:06pm 8
mph
1011.6mb 71f 85f
1:00pm 6 7 mph 1011.6mb 71f 85f
12:54pm 6 7 mph 1011.6mb 71f 84f
12:48pm 7
mph
1011.7mb 71f 84f
12:42pm 5 7 mph 1011.7mb 71f 83f
12:36pm 7 8 mph 1011.7mb 71f 82f
12:30pm 8
mph
1011.8mb 71f 83f
12:24pm 7 8 mph 1011.8mb 71f 83f
12:18pm 7 8 mph 1011.9mb 71f 83f
12:12pm 6 7 mph 1012mb 70f 83f
12:06pm 6
mph
1012.1mb 70f 82f
12:00pm 3 6 mph 1012.2mb 70f 82f
11:54am 5 7 mph 1012.3mb 70f 81f
11:48am 7 9 mph 1012.3mb 70f 81f
11:42am 9
mph
1012.3mb 70f 79f
11:36am 9
mph
1012.3mb 70f 80f
11:30am 8
mph
1012.3mb 70f 79f
11:24am 8 9 mph 1012.4mb 70f 78f
11:18am 7 9 mph 1012.4mb 70f 77f
11:12am 8 9 mph 1012.4mb 70f 77f
11:06am 8
mph
1012.5mb 70f 77f
11:00am 7 8 mph 1012.6mb 70f 77f
10:54am 7 8 mph 1012.6mb 70f 77f
10:48am 7 9 mph 1012.6mb 70f 77f
10:42am 7 10 mph 1012.7mb 70f 76f
10:36am 7 11 mph 1012.7mb 70f 76f
10:30am 8 11 mph 1012.8mb 70f 75f
10:24am 8 10 mph 1012.8mb 70f 75f
10:18am 8 9 mph 1012.7mb 70f 75f
10:12am 7 9 mph 1012.7mb 70f 74f
10:06am 8 9 mph 1012.7mb 70f 73f
10:00am 7 10 mph 1012.7mb 70f 73f
9:54am 9 11 mph 1012.8mb 70f 72f
9:48am 9 11 mph 1012.9mb 70f 71f
9:42am 9 11 mph 1013mb 70f 71f
9:36am 9 10 mph 1013.1mb 70f 70f
9:30am 9 11 mph 1013.1mb 70f 70f
9:24am 9 11 mph 1013mb 70f 69f
9:18am 9 10 mph 1013mb 70f 69f
9:12am 8 11 mph 1013mb 70f 68f
9:06am  -  mph 1013mb 70f -
9:00am 9 13 mph 1013mb 70f 68f
8:54am 10 13 mph 1013mb 70f 67f
8:48am 10 14 mph 1013.1mb 70f 67f
8:42am 11 14 mph 1013.1mb 70f 67f
8:36am 14 15 mph 1013.1mb 70f 67f
8:30am 13 15 mph 1013.1mb 70f 67f
8:24am 11 14 mph 1013mb 70f 66f
8:18am 10 13 mph 1013mb 70f 66f
8:12am 10 13 mph 1013mb 70f 66f
8:06am 9 13 mph 1012.9mb 70f 66f
8:00am 11 14 mph 1012.9mb 70f 65f
7:54am 9 13 mph 1012.9mb 70f 65f
7:48am 11 14 mph 1012.8mb 70f 65f
7:42am 14 15 mph 1012.7mb 70f 64f
7:36am 14 16 mph 1012.7mb 70f 64f
7:30am 11 17 mph 1012.7mb 70f 64f
7:24am 13 15 mph 1012.7mb 70f 64f
7:18am 13 15 mph 1012.7mb 70f 64f
7:12am 14 16 mph 1012.6mb 70f 63f
7:06am 14 16 mph 1012.5mb 70f 63f
7:00am 11 14 mph 1012.5mb 70f 63f
6:54am 11 15 mph 1012.5mb 70f 63f
6:48am 14 16 mph 1012.5mb 70f 63f
6:42am 14 18 mph 1012.5mb 70f 62f
6:36am 15 18 mph 1012.4mb 70f 62f
6:30am 15 17 mph 1012.3mb 70f 62f
6:24am 15 17 mph 1012.2mb 70f 62f
6:18am 16 18 mph 1012.1mb 70f 62f
6:12am 17 18 mph 1012.1mb 70f 62f
6:06am 15 16 mph 1012mb 70f 62f
6:00am 15 17 mph 1011.9mb 70f 63f
5:54am 14 16 mph 1011.8mb 70f 63f
5:48am 11 16 mph 1011.8mb 70f 63f
5:42am 13 15 mph 1011.8mb 70f 63f
5:36am 13 15 mph 1011.7mb 70f 62f
5:30am 9 13 mph 1011.7mb 70f 61f
5:24am 11 14 mph 1011.7mb 70f 60f
5:18am 11 14 mph 1011.6mb 70f 60f
5:12am 11 14 mph 1011.6mb 70f 60f
5:06am 10 14 mph 1011.6mb 70f 60f
5:00am 10 14 mph 1011.6mb 70f 62f
4:54am 11 16 mph 1011.6mb 70f 61f
4:48am 11 16 mph 1011.6mb 70f 63f
4:42am 13 15 mph 1011.6mb 70f 63f
4:36am 14 16 mph 1011.6mb 70f 63f
4:30am 14 17 mph 1011.6mb 70f 63f
4:24am 16 18 mph 1011.6mb 70f 62f
4:18am 16 20 mph 1011.6mb 70f 62f
4:12am 15 20 mph 1011.7mb 70f 62f
4:06am 16 20 mph 1011.7mb 70f 62f
4:00am 17 20 mph 1011.7mb 70f 62f
3:54am  -  mph 1011.7mb 70f -
3:48am 20 22 mph 1011.7mb 70f 62f
3:42am 18 22 mph 1011.6mb 70f 62f
3:36am 20 22 mph 1011.5mb 70f 62f
3:30am 16 22 mph 1011.5mb 70f 62f
3:24am 18 22 mph 1011.5mb 70f 62f
3:18am 17 23 mph 1011.6mb 70f 62f
3:12am 20 22 mph 1011.6mb 70f 62f
3:06am 20 23 mph 1011.6mb 70f 62f
3:00am 20 23 mph 1011.5mb 70f 63f
2:54am 22 23 mph 1011.5mb 70f 63f
2:48am 22 24 mph 1011.5mb 70f 64f
2:42am 18 25 mph 1011.5mb 70f 65f
2:36am 17 21 mph 1011.5mb 70f 66f
2:30am 17 22 mph 1011.4mb 70f 66f
2:24am 15 18 mph 1011.5mb 70f 66f
2:18am 15 18 mph 1011.5mb 70f 66f
2:12am 15 18 mph 1011.5mb 70f 66f
2:06am 16 20 mph 1011.4mb 70f 66f
2:00am 15 18 mph 1011.4mb 70f 66f
1:54am 14 16 mph 1011.4mb 70f 67f
1:48am 14 18 mph 1011.4mb 70f 67f
1:42am 16 18 mph 1011.4mb 70f 67f
1:36am 16 17 mph 1011.4mb 70f 67f
1:30am 14 17 mph 1011.4mb 70f 67f
1:24am 15 17 mph 1011.5mb 70f 67f
1:18am 14 17 mph 1011.5mb 70f 67f
1:12am 14 16 mph 1011.5mb 70f 67f
1:06am 14 16 mph 1011.5mb 70f 67f
1:00am 15 17 mph 1011.5mb 70f 67f
12:54am 14 16 mph 1011.5mb 70f 67f
12:48am 14 15 mph 1011.5mb 70f 67f
12:42am 8 15 mph 1011.5mb 70f 67f
12:36am 13 15 mph 1011.6mb 70f 67f
12:30am 11 14 mph 1011.6mb 70f 67f
12:24am 11 15 mph 1011.7mb 70f 69f
12:18am 13 14 mph 1011.7mb 70f 68f
12:12am 11 15 mph 1011.7mb 70f 67f
12:06am 13 15 mph 1011.7mb 70f 68f
12:00am 10 14 mph 1011.7mb 70f 67f
Mon 07/25 11:54pm 10 14 mph 1011.7mb 70f 67f
11:48pm 10 14 mph 1011.7mb 70f 68f
11:42pm 11 14 mph 1011.8mb 70f 68f
11:36pm 13 16 mph 1011.8mb 70f 68f
11:30pm 14 15 mph 1011.8mb 70f 69f
11:24pm 13 15 mph 1011.8mb 70f 69f
11:18pm 11 14 mph 1011.9mb 70f 69f
11:12pm 11 15 mph 1011.9mb 70f 68f
11:06pm 14 15 mph 1012mb 70f 69f
11:00pm 13 14 mph 1012mb 70f 69f
10:54pm 13 15 mph 1012.1mb 70f 69f
10:48pm 15 17 mph 1012.1mb 70f -
10:42pm 16 18 mph 1012.2mb 70f -
10:36pm 15 17 mph 1012.1mb 70f -
10:30pm 16 20 mph 1012.1mb 70f 70f
10:24pm 18 21 mph 1012mb 70f 71f
10:18pm 18 22 mph 1012mb 70f 71f
10:12pm 20 22 mph 1012mb 70f 71f
10:06pm 18 21 mph 1012.1mb 70f 71f
10:00pm 17 20 mph 1012.1mb 70f 71f
9:54pm 17 20 mph 1012mb 70f 72f
9:48pm 15 17 mph 1012mb 70f 72f
9:42pm 15 20 mph 1012mb 70f 72f
9:36pm 18 22 mph 1011.9mb 70f 73f
9:30pm 20 22 mph 1011.7mb 70f 73f
9:24pm 17 20 mph 1011.7mb 70f 73f
9:18pm 17 21 mph 1011.6mb 70f 73f
9:12pm 18 21 mph 1011.5mb 70f 74f
9:06pm 18 21 mph 1011.5mb 70f 74f
9:00pm 17 20 mph 1011.4mb 70f 74f
8:54pm 16 18 mph 1011.4mb 70f 74f
8:48pm 15 17 mph 1011.3mb 70f 74f
8:42pm 14 16 mph 1011.3mb 70f 74f
8:36pm 14 16 mph 1011.2mb 70f 75f
8:30pm 14 16 mph 1011.1mb 70f 75f
8:24pm 15 16 mph 1011.1mb 70f 76f
8:18pm 15 17 mph 1011mb 70f 76f
8:12pm 15 16 mph 1011mb 70f 77f
8:06pm 14 15 mph 1011.1mb 70f 77f
8:00pm 13 15 mph - 70f 77f
7:54pm 13 14 mph - 70f 78f
7:48pm 11 14 mph 1011mb - -
7:42pm 11 14 mph 1011.1mb - -
7:36pm 9 11 mph 1011.1mb - -
7:30pm 9 11 mph - 70f 79f
7:24pm 10 13 mph - 70f 80f
7:18pm 13 17 mph - 70f 80f
7:12pm 15 17 mph - 70f 81f
7:06pm 15 16 mph - 70f 81f
7:00pm 14 15 mph - 70f 80f
6:54pm 10 14 mph - 70f 82f
6:48pm 13 15 mph 1010.9mb 70f -
6:42pm 13 16 mph 1010.9mb 70f -
6:36pm 14 16 mph 1010.9mb 70f -
6:30pm 13 15 mph - 70f -
6:24pm 13 15 mph - 70f -
6:18pm 13 15 mph - 70f 84f
6:12pm 14 16 mph - 70f 84f
6:06pm 14 16 mph - 70f 84f
6:00pm 16 18 mph - 70f 84f
5:54pm 15 18 mph - 70f 85f
5:48pm 15 17 mph - - -
5:42pm 16 18 mph - - -
5:36pm 15 17 mph - - -
5:30pm 15 17 mph - 70f 85f
5:24pm 15 20 mph - 70f 85f
5:18pm 14 18 mph - 70f -
5:12pm 16 20 mph - 70f -
5:06pm 15 20 mph - 70f -
5:00pm  -  mph - 70f 84f
4:54pm  -  mph - 70f 84f
4:48pm 17 20 mph 1011.2mb - -
4:42pm 17 21 mph 1011.2mb - -
4:36pm 17 20 mph 1011.2mb - -
4:30pm  -  mph - 70f -
4:24pm  -  mph - 70f -
4:18pm 15 17 mph 1011.2mb 70f -
4:12pm 16 20 mph 1011.2mb 70f -
4:06pm 18 20 mph 1011.3mb 70f -
4:00pm  -  mph - 70f 81f
3:54pm  -  mph - 70f 81f
3:48pm 16 18 mph 1011.6mb 70f -
3:42pm 16 18 mph 1011.6mb 70f -
3:36pm 15 17 mph 1011.7mb 70f -
3:30pm 15 17 mph 1011.7mb 70f -
3:24pm 15 17 mph 1011.7mb 70f -
3:18pm 15 18 mph - 70f 79f
3:12pm 16 17 mph - 70f 80f
3:06pm 16 18 mph - 70f 79f
3:00pm  -  mph - 70f -
2:54pm  -  mph - 70f -
2:48pm  -  mph - 70f 78f
2:42pm  -  mph - 70f 78f
2:36pm  -  mph - 70f 78f
2:30pm 14 18 mph 1012mb 70f 77f
2:24pm 15 16 mph 1012mb 70f 77f
2:18pm 15 17 mph 1012.1mb 70f 76f
2:12pm 16 18 mph 1012.1mb 70f 76f
2:06pm 17 20 mph 1012.1mb 70f 75f
2:00pm 17 20 mph 1012.2mb 70f 75f
1:54pm 15 16 mph 1012.3mb 70f 75f
1:48pm 15 16 mph 1012.3mb 70f 74f
1:42pm 15 17 mph 1012.4mb 70f 74f
1:36pm 16 17 mph 1012.4mb 70f 74f
1:30pm 16 18 mph 1012.4mb 70f 74f
1:24pm 16 18 mph 1012.4mb 70f 74f
1:18pm 16 18 mph 1012.5mb 70f 73f
1:12pm 16 17 mph 1012.6mb 70f 73f
1:06pm 15 17 mph 1012.6mb 70f 73f
1:00pm 15 17 mph 1012.7mb 70f 73f
12:54pm 16 17 mph 1012.7mb 70f 73f
12:48pm 15 17 mph 1012.8mb 70f 72f
12:42pm 15 17 mph 1012.9mb 70f 72f
12:36pm 15 18 mph 1012.9mb 70f 72f
12:30pm 16 17 mph 1013mb 70f 71f
12:24pm 14 17 mph 1013mb 70f 71f
12:18pm 15 18 mph 1012.9mb 70f 71f
12:12pm 16 20 mph 1013mb 70f 70f
12:06pm 16 18 mph 1013mb 70f 70f
12:00pm 16 20 mph 1013.1mb 70f 70f
11:54am 17 18 mph 1013.1mb 70f 69f
11:48am 16 18 mph 1013.1mb 70f 69f
11:42am 15 18 mph 1013.2mb 70f 69f
11:36am 17 20 mph 1013.2mb 70f 68f
11:30am 16 18 mph 1013.3mb 70f 68f
11:24am 16 18 mph 1013.3mb 70f 68f
11:18am 16 20 mph 1013.3mb 70f 67f
11:12am 17 21 mph 1013.3mb 70f 67f
11:06am 18 21 mph 1013.3mb 69f 66f
11:00am 17 22 mph 1013.3mb 69f 66f
10:54am 18 22 mph 1013.3mb 69f 65f
10:48am 20 22 mph 1013.3mb 69f 65f
10:42am 20 23 mph 1013.3mb 69f 65f
10:36am 20 23 mph 1013.4mb 69f 64f
10:30am 21 23 mph 1013.3mb 69f 64f
10:24am 21 23 mph 1013.3mb 69f 64f
10:18am 21 23 mph 1013.3mb 69f 63f
10:12am 21 23 mph 1013.3mb 69f 63f
10:06am 21 23 mph 1013.4mb 69f 63f
10:00am 21 23 mph 1013.4mb 69f 62f
9:54am 21 24 mph 1013.4mb 69f 62f
9:48am 20 24 mph 1013.3mb 69f 61f
9:42am 21 24 mph 1013.3mb 69f 61f
9:36am 22 24 mph 1013.4mb 69f 61f
9:30am 22 25 mph 1013.4mb 69f 60f
9:24am 22 25 mph 1013.4mb 69f 60f
9:18am 22 25 mph 1013.5mb 69f 60f
9:12am 22 24 mph 1013.4mb 69f 60f
9:06am 23 26 mph 1013.4mb 69f 59f
9:00am 23 26 mph 1013.3mb 69f 59f
8:54am 24 28 mph 1013.3mb 69f 59f
8:48am 23 26 mph 1013.3mb 70f 59f
8:42am 22 25 mph 1013.2mb 70f 59f
8:36am 23 25 mph 1013.2mb 70f 59f
8:30am 22 24 mph 1013.2mb 70f 59f
8:24am 21 24 mph 1013.3mb 70f 59f
8:18am 22 24 mph 1013.3mb 70f 59f
8:12am 21 24 mph 1013.2mb 70f 59f
8:06am 21 24 mph 1013.1mb 70f 59f
8:00am 21 24 mph 1013mb 70f 59f
7:54am 20 24 mph 1013.1mb 70f 59f
7:48am 20 23 mph 1013.1mb 70f 59f
7:42am 21 23 mph 1013mb 70f 59f
7:36am 17 22 mph 1013mb 70f 60f
7:30am 20 23 mph 1013mb 70f 59f
7:24am 21 24 mph 1013mb 70f 59f
7:18am 20 23 mph 1013mb 70f 59f
7:12am 22 24 mph 1012.9mb 70f 58f
7:06am 22 25 mph 1012.8mb 70f 58f
7:00am 24 25 mph 1012.8mb 70f 58f
6:54am 22 25 mph 1012.7mb 70f 58f
6:48am 22 24 mph 1012.7mb 70f 58f
6:42am 21 26 mph 1012.7mb 70f 58f
6:36am 22 28 mph 1012.6mb 70f 58f
6:30am  -  mph 1012.5mb 70f -
6:24am 24 25 mph 1012.4mb 70f 57f
6:18am 23 25 mph 1012.4mb 70f 57f
6:12am 22 26 mph 1012.3mb 70f 58f
6:06am 22 24 mph 1012.3mb 70f 58f
6:00am 22 25 mph 1012.2mb 70f 58f
5:54am 22 26 mph 1012.2mb 70f 58f
5:48am 23 25 mph 1012.1mb 70f 58f
5:42am 22 24 mph 1012.1mb 70f 58f
5:36am 22 25 mph 1012.1mb 70f 58f
5:30am 22 26 mph 1012.1mb 70f 58f
5:24am 22 24 mph 1012mb 70f 58f
5:18am 22 26 mph 1011.9mb 70f 58f
5:12am 22 28 mph 1011.9mb 70f 58f
5:06am 22 25 mph 1011.9mb 70f 58f
5:00am 22 26 mph 1011.9mb 70f 59f
4:54am 22 26 mph 1011.9mb 70f 59f
4:48am 22 25 mph 1011.8mb 70f 58f
4:42am 23 26 mph 1011.8mb 70f 59f
4:36am 22 26 mph 1011.7mb 70f 59f
4:30am 22 29 mph 1011.7mb 70f 59f
4:24am 23 26 mph 1011.7mb 70f 59f
4:18am 23 25 mph 1011.6mb 70f 60f
4:12am 22 25 mph 1011.6mb 70f 59f
4:06am 22 28 mph 1011.5mb 70f 59f
4:00am 24 29 mph 1011.5mb 70f 59f
3:54am 22 25 mph 1011.5mb 70f 60f
3:48am 21 26 mph 1011.4mb 70f 60f
3:42am 24 29 mph 1011.4mb 70f 59f
3:36am  -  mph 1011.4mb 70f -
3:30am 25 29 mph 1011.4mb 70f 59f
3:24am 25 28 mph 1011.4mb 70f 59f
3:18am 24 28 mph 1011.4mb 70f 59f
3:12am 23 28 mph 1011.4mb 70f 59f
3:06am 24 26 mph 1011.4mb 70f 59f
3:00am 25 28 mph 1011.4mb 70f 59f
2:54am 23 26 mph 1011.4mb 70f 59f
2:48am 24 28 mph 1011.4mb 70f 59f
2:42am 23 28 mph 1011.3mb 70f 59f
2:36am 24 28 mph 1011.3mb 70f 59f
2:30am 25 29 mph 1011.3mb 70f 60f
2:24am 24 26 mph 1011.3mb 70f 59f
2:18am 23 26 mph 1011.3mb 70f 59f
2:12am 22 28 mph 1011.4mb 70f 59f
2:06am 24 30 mph 1011.4mb 70f 60f
2:00am 26 29 mph 1011.4mb 70f 59f
1:54am 25 29 mph 1011.4mb 70f 59f
1:48am 25 28 mph 1011.3mb 70f 59f
1:42am 25 28 mph 1011.3mb 70f 59f
1:36am 23 26 mph 1011.3mb 70f 59f
1:30am 22 26 mph 1011.2mb 70f 60f
1:24am 23 25 mph 1011.2mb 70f 60f
1:18am 24 26 mph 1011.2mb 71f 60f
1:12am 23 25 mph 1011.2mb 71f 60f
1:06am 22 24 mph 1011.3mb 71f 60f
1:00am 21 26 mph 1011.3mb 71f 60f
12:54am 23 29 mph 1011.3mb 71f 60f
12:48am 24 29 mph 1011.3mb 71f 60f
12:42am 22 25 mph 1011.2mb 71f 61f
12:36am 22 26 mph 1011.2mb 71f 61f
12:30am 22 25 mph 1011.2mb 71f 61f
12:24am 22 25 mph 1011.2mb 71f 61f
12:18am 22 24 mph 1011.2mb 71f 60f
12:12am 22 25 mph 1011.1mb 71f 61f
12:06am 22 25 mph 1011mb 71f 61f
12:00am 20 24 mph 1011mb 71f 61f
Sun 07/24 11:54pm 22 25 mph 1011mb 71f 61f
11:48pm 22 25 mph 1010.9mb 71f 61f
11:42pm 18 24 mph 1010.9mb 71f 62f
11:36pm 21 24 mph 1010.9mb 71f 62f
11:30pm 20 23 mph 1010.9mb 71f 62f
11:24pm 21 23 mph 1010.9mb 71f 61f
11:18pm 20 24 mph 1011mb 71f 62f
11:12pm 22 23 mph 1010.9mb 71f 62f
11:06pm 21 24 mph 1010.9mb 71f 62f
11:00pm 21 23 mph 1011mb 71f 62f
10:54pm 22 24 mph 1011mb 71f 62f
10:48pm 22 24 mph 1010.9mb - -
10:42pm 22 24 mph 1010.9mb - -
10:36pm 20 22 mph 1010.8mb - -
10:30pm 20 22 mph 1010.8mb 71f 63f
10:24pm 20 22 mph 1010.8mb 71f 63f
10:18pm 17 18 mph 1010.9mb 71f 64f
10:12pm 15 20 mph 1010.8mb 71f 65f
10:06pm 16 18 mph 1010.8mb 71f 65f
10:00pm 16 18 mph 1010.8mb 71f 66f
9:54pm 16 18 mph 1010.7mb 71f 66f
9:48pm 16 18 mph 1010.6mb 71f 67f
9:42pm 13 16 mph 1010.5mb 71f 67f
9:36pm 11 14 mph 1010.5mb 71f 68f
9:30pm 11 14 mph 1010.4mb 71f 69f
9:24pm 9 11 mph 1010.2mb 71f 70f
9:18pm 9 10 mph 1010.2mb 71f 71f
9:12pm 7 9 mph 1010.1mb 71f 72f
9:06pm 7 9 mph 1010mb 71f 72f
9:00pm 8 13 mph 1010mb 71f 73f
8:54pm 10 14 mph 1010mb 71f 73f
8:48pm 11 14 mph 1010mb 71f 73f
8:42pm 5 8 mph 1010mb 71f 73f
8:36pm 6 13 mph 1009.9mb 71f 73f
8:30pm 10 16 mph 1009.9mb 71f 74f
8:24pm 14 16 mph 1009.9mb 71f 75f
8:18pm 11 16 mph - 71f 74f
8:12pm 14 17 mph - 71f 76f
8:06pm 15 18 mph - 71f 77f
8:00pm  -  mph 1009.7mb 71f -
7:54pm  -  mph 1009.7mb 71f -
7:48pm 15 17 mph 1009.7mb 70f -
7:42pm 14 16 mph 1009.6mb 70f -
7:36pm 14 17 mph 1009.6mb 70f -
7:30pm 16 18 mph - 70f -
7:24pm 17 18 mph - 70f -
7:18pm 16 17 mph 1009.5mb 70f 81f
7:12pm 14 16 mph 1009.5mb 70f 80f
7:06pm 13 14 mph 1009.5mb 70f 80f
7:00pm  -  mph - 70f 83f
6:54pm  -  mph - 70f 85f
6:48pm 15 17 mph - 70f -
6:42pm 15 17 mph - 70f -
6:36pm 11 15 mph - 70f -
6:30pm 13 14 mph 1009.2mb 70f -
6:24pm 11 14 mph 1009.2mb 70f -
6:18pm 11 14 mph 1009.1mb 70f -
6:12pm 11 14 mph 1009.2mb 70f -
6:06pm 14 16 mph 1009.1mb 70f -
6:00pm 15 17 mph - 70f 88f
5:54pm 15 17 mph - 70f 88f
5:48pm 15 17 mph 1009.1mb 70f -
5:42pm 15 17 mph 1009.1mb 70f -
5:36pm 15 18 mph 1009mb 70f -
5:30pm 16 20 mph - - -
5:24pm 16 18 mph - - -
5:18pm 15 17 mph - 70f 88f
5:12pm 16 20 mph - 70f 87f
5:06pm 17 18 mph - 70f 85f
5:00pm  -  mph - 70f 85f
4:54pm  -  mph - 71f 85f
4:48pm 20 22 mph - - -
4:42pm 21 22 mph - - -
4:36pm 21 22 mph - - -
4:30pm 21 22 mph - 70f -
4:24pm 18 20 mph - 70f -
4:18pm 16 18 mph - 70f -
4:12pm 16 17 mph - 70f -
4:06pm 15 17 mph - 70f -
4:00pm  -  mph - 70f 85f
3:54pm  -  mph - 70f 85f
3:48pm 14 16 mph - - -
3:42pm 15 16 mph - - -
3:36pm 11 16 mph - - -
3:30pm 14 16 mph - 70f -
3:24pm 13 15 mph - 70f -
3:18pm 14 17 mph 1009.6mb 70f 84f
3:12pm 14 17 mph 1009.7mb 70f 84f
3:06pm 15 16 mph 1009.7mb 70f 83f
3:00pm  -  mph - 70f 83f
2:54pm  -  mph - 70f 83f
2:48pm 15 16 mph - 70f 83f
2:42pm 15 17 mph - 70f 83f
2:36pm 15 17 mph - 70f 83f
2:30pm 16 17 mph 1009.9mb 70f 83f
2:24pm 13 14 mph 1009.9mb 70f 82f
2:18pm 11 15 mph 1010mb 70f 82f
2:12pm 15 16 mph 1010mb 70f 83f
2:06pm 13 15 mph 1010mb 70f 81f
2:00pm 15 17 mph 1010mb 70f 82f
1:54pm 14 16 mph 1010mb 70f 80f
1:48pm 14 17 mph 1010.1mb 70f 80f
1:42pm 15 17 mph 1010.1mb 70f 81f
1:36pm 16 17 mph 1010.1mb 70f 81f
1:30pm 14 17 mph 1010.2mb 70f 80f
1:24pm 14 17 mph 1010.2mb 70f 81f
1:18pm 14 17 mph 1010.2mb 70f 80f
1:12pm 14 16 mph 1010.2mb 70f 80f
1:06pm 14 16 mph 1010.2mb 70f 79f
1:00pm 14 16 mph 1010.2mb 70f 79f
12:54pm 15 17 mph 1010.2mb 70f 79f
12:48pm 15 16 mph 1010.3mb 70f 78f
12:42pm 14 16 mph 1010.4mb 70f 77f
12:36pm 14 16 mph 1010.4mb 70f 77f
12:30pm 14 15 mph 1010.5mb 70f 77f
12:24pm 13 15 mph 1010.5mb 70f 77f
12:18pm 13 14 mph 1010.5mb 70f 77f
12:12pm 13 15 mph 1010.5mb 70f 76f
12:06pm 13 15 mph 1010.5mb 70f 76f
12:00pm 13 15 mph 1010.5mb 70f 76f
11:54am 14 15 mph 1010.5mb 70f 76f
11:48am 13 15 mph 1010.5mb 70f 75f
11:42am 15 16 mph 1010.6mb 70f 75f
11:36am 13 16 mph 1010.6mb 70f 75f
11:30am 14 16 mph 1010.6mb 69f 75f
11:24am 13 15 mph 1010.5mb 69f 74f
11:18am 13 15 mph 1010.6mb 69f 74f
11:12am 14 15 mph 1010.7mb 69f 74f
11:06am 14 15 mph 1010.7mb 70f 74f
11:00am 14
mph
1010.8mb 70f 73f
10:54am 10 14 mph 1010.8mb 69f 73f
10:48am 8 11 mph 1010.7mb 69f 73f
10:42am 9 14 mph 1010.8mb 69f 72f
10:36am 11 14 mph 1010.8mb 69f 72f
10:30am 11 14 mph 1010.8mb 69f 72f
10:24am 10 13 mph 1010.8mb 69f 71f
10:18am 11 14 mph 1010.7mb 69f 71f
10:12am 11 14 mph 1010.7mb 69f 71f
10:06am  -  mph 1010.8mb 69f -
10:00am 13 15 mph 1010.7mb 69f 69f
9:54am 14 15 mph 1010.8mb 69f 69f
9:48am 13 16 mph 1010.7mb 69f 69f
9:42am 14 16 mph 1010.7mb 69f 68f
9:36am 14 16 mph 1010.7mb 69f 68f
9:30am 11 16 mph 1010.7mb 69f 68f
9:24am 14 16 mph 1010.6mb 69f 67f
9:18am 14 16 mph 1010.6mb 69f 67f
9:12am 13 15 mph 1010.6mb 69f 67f
9:06am 14 16 mph 1010.6mb 69f 66f
9:00am 14 16 mph 1010.7mb 69f 66f
8:54am 14 16 mph 1010.7mb 69f 66f
8:48am 11 16 mph 1010.7mb 69f 66f
8:42am 13 17 mph 1010.7mb 69f 65f
8:36am 14 15 mph 1010.6mb 69f 65f
8:30am 13 15 mph 1010.7mb 69f 65f
8:24am 10 15 mph 1010.6mb 69f 65f
8:18am 11 15 mph 1010.6mb 69f 64f
8:12am 13 15 mph 1010.6mb 69f 64f
8:06am 11 15 mph 1010.6mb 69f 64f
8:00am 11 14 mph 1010.6mb 69f 64f
7:54am 11 14 mph 1010.5mb 69f 63f
7:48am 10 15 mph 1010.5mb 69f 63f
7:42am 11 14 mph 1010.4mb 69f 62f
7:36am 11 14 mph 1010.5mb 69f 62f
7:30am 11 14 mph 1010.4mb 69f 62f
7:24am 9 14 mph 1010.3mb 69f 62f
7:18am 11 15 mph 1010.2mb 69f 62f
7:12am 13 16 mph 1010.2mb 69f 61f
7:06am 13 16 mph 1010.1mb 69f 61f
7:00am 13 15 mph 1010.1mb 69f 61f
6:54am 13 17 mph 1010mb 69f 61f
6:48am 15 18 mph 1010mb 69f 61f
6:42am 14 17 mph 1010mb 69f 61f
6:36am 13 15 mph 1010.1mb 69f 61f
6:30am 13 16 mph 1010mb 69f 60f
6:24am 13 15 mph 1010.1mb 69f 60f
6:18am 11 16 mph 1010.1mb 69f 60f
6:12am 13 16 mph 1010mb 69f 60f
6:06am 13 18 mph 1009.9mb 69f 60f
6:00am 14 21 mph 1009.8mb 69f 61f
5:54am 16 21 mph 1009.7mb 69f 61f
5:48am 14 21 mph 1009.7mb 69f 61f
5:42am 11 18 mph 1009.6mb 69f 62f
5:36am 14 18 mph 1009.6mb 69f 61f
5:30am 14 18 mph 1009.5mb 69f 62f
5:24am 14 17 mph 1009.4mb 69f 61f
5:18am 15 20 mph 1009.3mb 69f 62f
5:12am 16 20 mph 1009.4mb 69f 61f
5:06am 17 22 mph 1009.4mb 69f 61f
5:00am 17 21 mph 1009.3mb 69f 61f
4:54am 18 21 mph 1009.4mb 69f 61f
4:48am 18 21 mph 1009.4mb 69f 61f
4:42am 18 21 mph 1009.4mb 69f 62f
4:36am 15 21 mph 1009.3mb 69f 62f
4:30am 13 17 mph 1009.2mb 69f 62f
4:24am 14 16 mph 1009.2mb 69f 62f
4:18am 14 17 mph 1009.1mb 69f 62f
4:12am 14 21 mph 1009.1mb 69f 62f
4:06am 17 20 mph 1009.1mb 69f 62f
4:00am 17 20 mph 1009.1mb 69f 62f
3:54am 17 20 mph 1009.1mb 69f 62f
3:48am 16 21 mph 1009.1mb 69f 62f
3:42am 18 21 mph 1009.1mb 69f 62f
3:36am 18 21 mph 1009.1mb 69f 62f
3:30am 18 21 mph 1009mb 69f 62f
3:24am 18 20 mph 1009.1mb 69f 62f
3:18am 15 18 mph 1009.1mb 69f 62f
3:12am 14 18 mph 1009.1mb 70f 62f
3:06am 14 16 mph 1009.2mb 70f 62f
3:00am 14 16 mph 1009.2mb 70f 62f
2:54am 14 17 mph 1009.2mb 70f 63f
2:48am 17 20 mph 1009.2mb 69f 63f
2:42am 15 18 mph 1009.3mb 69f 63f
2:36am 17 18 mph 1009.3mb 69f 63f
2:30am 15 18 mph 1009.4mb 69f 63f
2:24am 11 16 mph 1009.4mb 69f 63f
2:18am 14 17 mph 1009.4mb 69f 63f
2:12am 15 16 mph 1009.4mb 69f 63f
2:06am 14 16 mph 1009.4mb 70f 63f
2:00am 13 16 mph 1009.5mb 70f 64f
1:54am 13 16 mph 1009.5mb 70f 64f
1:48am 13 16 mph 1009.6mb 70f 63f
1:42am 11 16 mph 1009.6mb 70f 64f
1:36am 11 16 mph 1009.6mb 70f 64f
1:30am 15 18 mph 1009.6mb 70f 64f
1:24am 15 18 mph 1009.7mb 70f 65f
1:18am 15 18 mph 1009.7mb 70f 65f
1:12am 16 20 mph 1009.7mb 70f 65f
1:06am 16 20 mph 1009.7mb 70f 65f
1:00am 15 18 mph 1009.7mb 70f 65f
12:54am 16 18 mph 1009.7mb 70f 65f
12:48am 14 16 mph 1009.6mb 70f 65f
12:42am 13 15 mph 1009.6mb 70f 65f
12:36am 13 15 mph 1009.7mb 70f 64f
12:30am 15 16 mph 1009.7mb 70f 65f
12:24am 13 17 mph 1009.7mb 70f 65f
12:18am 14 15 mph 1009.7mb 70f 65f
12:12am 10 15 mph 1009.9mb 70f 66f
12:06am 13 18 mph 1009.9mb 70f 68f
12:00am 14 16 mph 1010mb 70f 68f
Sat 07/23 11:54pm 16 17 mph 1010mb 70f 69f
11:48pm 13 15 mph 1010mb 70f 70f
11:42pm 14 18 mph 1009.9mb 70f 70f
11:36pm  -  mph 1009.9mb 70f -
11:30pm 18 21 mph 1009.8mb 70f 71f
11:24pm 18 20 mph 1009.9mb 70f 71f
11:18pm 16 21 mph 1010mb 70f 71f
11:12pm 17 20 mph 1010mb 70f 72f
11:06pm 17 20 mph 1010mb 70f 72f
11:00pm 14 17 mph 1010mb 70f 72f
10:54pm 15 17 mph 1010.1mb 70f 72f
10:48pm 14 16 mph 1010.1mb 70f 72f
10:42pm 15 16 mph 1010.1mb 70f 72f
10:36pm 14 17 mph 1010.1mb 70f 72f
10:30pm 14 17 mph 1010mb 70f 72f
10:24pm 14 16 mph 1010.1mb 70f 72f
10:18pm 13 15 mph 1010.1mb 70f 73f
10:12pm 14 17 mph 1010.1mb 70f 74f
10:06pm 15 18 mph 1010mb 70f 75f
10:00pm 14 18 mph 1010mb 70f 75f
9:54pm 13 15 mph 1010mb 70f 75f
9:48pm 14 15 mph 1009.9mb 70f 74f
9:42pm 11 13 mph 1009.9mb 70f 74f
9:36pm 8 10 mph 1009.9mb 70f 75f
9:30pm 8 14 mph 1009.9mb 70f 75f
9:24pm 11 15 mph 1009.8mb 70f 77f
9:18pm 13 15 mph 1009.6mb 70f 77f
9:12pm 11 13 mph 1009.5mb 70f 76f
9:06pm 9 10 mph 1009.5mb 70f 76f
9:00pm 6 8 mph 1009.6mb 70f 75f
8:54pm 6 9 mph 1009.6mb 70f 76f
8:48pm 8 9 mph 1009.6mb 70f 77f
8:42pm 7 8 mph 1009.6mb 70f 77f
8:36pm 6 9 mph 1009.7mb 70f 77f
8:30pm 8 13 mph 1009.6mb 70f 78f
8:24pm 13 15 mph 1009.5mb 70f 79f
8:18pm 13 14 mph - 70f 80f
8:12pm 9 10 mph - 70f 80f
8:06pm 9 14 mph - 70f 79f
8:00pm  -  mph - 70f 81f
7:54pm  -  mph - 70f 82f
7:48pm 13 14 mph 1009.4mb - -
7:42pm 11 13 mph 1009.4mb - -
7:36pm 8 10 mph 1009.5mb - -
7:30pm 9 10 mph 1009.4mb - -
7:24pm 8 10 mph 1009.5mb - -
7:18pm  -  mph 1009.6mb 70f 84f
7:12pm  -  mph 1009.5mb 70f 84f
7:06pm  -  mph 1009.5mb 70f 84f
7:00pm  -  mph - 70f 84f
6:54pm  -  mph - 70f 84f
6:48pm  -  mph - 70f -
6:42pm  -  mph - 70f -
6:36pm  -  mph - 70f -
6:30pm 14 16 mph - - -
6:24pm 14 16 mph - - -
6:18pm 15 18 mph - 70f -
6:12pm 17 18 mph - 70f -
6:06pm 17 18 mph - 70f -
6:00pm  -  mph - 70f 84f
5:54pm  -  mph - 70f 85f
5:48pm 15 16 mph 1010mb - -
5:42pm 15 16 mph 1010mb - -
5:36pm 15 16 mph 1010.1mb - -
5:30pm 15 17 mph - - -
5:24pm 15 16 mph - - -
5:18pm 16
mph
1010.4mb 70f -
5:12pm 15 17 mph 1010.4mb 70f -
5:06pm 16 17 mph 1010.4mb 70f -
5:00pm  -  mph - 70f -
4:54pm  -  mph - 70f -
4:48pm 15 16 mph - - -
4:42pm 15 16 mph - - -
4:36pm 15 16 mph - - -
4:30pm 14 17 mph - - -
4:24pm 16 17 mph - - -
4:18pm 16 17 mph 1010.8mb 70f 86f
4:12pm 16 17 mph 1010.9mb 70f 86f
4:06pm 17 18 mph 1010.9mb 70f 86f
4:00pm  -  mph - 70f 88f
3:54pm  -  mph - 70f 87f
3:48pm  -  mph - 70f 87f
3:42pm  -  mph - 70f 87f
3:36pm  -  mph - 70f 87f
3:30pm 16 17 mph - - -
3:24pm 16 18 mph - - -
3:18pm  -  mph - 70f -
3:12pm  -  mph - 70f -
3:06pm  -  mph - 70f -
3:00pm  -  mph - 70f -
2:54pm  -  mph - 70f -
2:48pm 14 16 mph 1011.9mb - 88f
2:42pm 15 16 mph 1011.9mb - 87f
2:36pm 14 16 mph 1012mb - 87f
2:30pm 14 15 mph 1012.1mb 69f 86f
2:24pm 14 15 mph 1012.2mb 69f 86f
2:18pm 11 14 mph 1012.3mb 69f 86f
2:12pm 13 14 mph 1012.4mb 69f 86f
2:06pm 13 15 mph 1012.5mb 69f 86f
2:00pm 14 15 mph 1012.6mb 69f 85f
1:54pm 13 15 mph 1012.6mb 69f 85f
1:48pm 13 15 mph 1012.7mb 69f 85f
1:42pm 13 15 mph 1012.8mb 69f 84f
1:36pm 13 15 mph 1013mb 69f 83f
1:30pm 14 15 mph 1013.1mb 69f 83f
1:24pm 11 15 mph 1013.1mb 69f 83f
1:18pm 13 15 mph 1013.2mb 69f 82f
1:12pm 14 16 mph 1013.2mb 69f 82f
1:06pm 15 17 mph 1013.3mb 69f 82f
1:00pm 14 16 mph 1013.4mb 69f 80f
12:54pm 13 16 mph 1013.4mb 69f 80f
12:48pm 13 15 mph 1013.5mb 69f 80f
12:42pm 14 15 mph 1013.6mb 69f 80f
12:36pm 11 15 mph 1013.6mb 69f 79f
12:30pm 13 15 mph 1013.6mb 69f 79f
12:24pm 14 15 mph 1013.7mb 69f 77f
12:18pm 15 16 mph 1013.7mb 69f 77f
12:12pm 14 15 mph 1013.8mb 69f 77f
12:06pm 14
mph
1013.8mb 69f 77f
12:00pm 11 14 mph 1013.9mb 69f 76f
11:54am 13 14 mph 1014mb 69f 76f
11:48am 11 13 mph 1014mb 69f 76f
11:42am 10 11 mph 1014mb 69f 75f
11:36am 11 13 mph 1014.1mb 69f 76f